When you browse on this site, cookies collect data to enhance your experience and personalize the content and advertising you see.
Visit our Privacy Policy to learn more. By continuing to use the site, you agree to this use of cookies and data.
  • In Spain
  • List of Countries
  • For 7 days
  • Water Temperature
  • Weather Map
  • Weather Widgets
  • user-avatar
    Login

    Hourly Weather La Calera

    Today, 25 January, Saturday

    Time Temperature Precipitation Wind Pressure Humidity
    00:00 +14°C° 0 mm 0 mps 743 mmHg 90%
    01:00 +14°C° 0 mm 0 mps 743 mmHg 90%
    02:00 +14°C° 0 mm 0 mps 743 mmHg 90%
    03:00 +14°C° 0 mm 0 mps 743 mmHg 90%
    04:00 +14°C° 0 mm 0 mps 743 mmHg 90%
    05:00 +17°C° 0 mm 0 mps 743 mmHg 80%
    06:00 +22°C° 0 mm 1 mps 743 mmHg 70%
    07:00 +25°C° 0 mm 1 mps 744 mmHg 60%
    08:00 +27°C° 0 mm 1 mps 744 mmHg 53%
    09:00 +30°C° 0 mm 2 mps 744 mmHg 45%
    10:00 +33°C° 0 mm 3 mps 744 mmHg 38%
    11:00 +33°C° 0 mm 3 mps 744 mmHg 36%
    12:00 +33°C° 0 mm 4 mps 744 mmHg 34%
    13:00 +34°C° 0 mm 4 mps 744 mmHg 32%
    14:00 +33°C° 0 mm 4 mps 744 mmHg 31%
    15:00 +31°C° 0 mm 3 mps 743 mmHg 31%
    16:00 +31°C° 0 mm 3 mps 743 mmHg 31%
    17:00 +27°C° 0 mm 2 mps 743 mmHg 43%
    18:00 +23°C° 0 mm 2 mps 744 mmHg 56%
    19:00 +20°C° 0 mm 1 mps 744 mmHg 69%
    20:00 +19°C° 0 mm 1 mps 744 mmHg 70%
    21:00 +16°C° 0 mm 0 mps 744 mmHg 72%
    22:00 +16°C° 0 mm 0 mps 744 mmHg 74%
    23:00 +15°C° 0 mm 0 mps 744 mmHg 75%

    Tomorrow, 26 January, Sunday

    Time Temperature Precipitation Wind Pressure Humidity
    00:00 +15°C° 0 mm 0 mps 744 mmHg 76%
    01:00 +15°C° 0 mm 0 mps 743 mmHg 77%
    02:00 +15°C° 0 mm 0 mps 743 mmHg 78%
    03:00 +14°C° 0 mm 0 mps 744 mmHg 79%
    04:00 +14°C° 0 mm 0 mps 744 mmHg 80%
    05:00 +17°C° 0 mm 0 mps 744 mmHg 69%
    06:00 +20°C° 0 mm 0 mps 745 mmHg 57%
    07:00 +25°C° 0 mm 1 mps 745 mmHg 46%
    08:00 +27°C° 0 mm 1 mps 745 mmHg 40%
    09:00 +29°C° 0 mm 2 mps 745 mmHg 35%
    10:00 +33°C° 0 mm 3 mps 745 mmHg 29%
    11:00 +33°C° 0 mm 3 mps 745 mmHg 28%
    12:00 +34°C° 0 mm 3 mps 745 mmHg 27%
    13:00 +34°C° 0 mm 4 mps 745 mmHg 25%
    14:00 +34°C° 0 mm 3 mps 744 mmHg 27%
    15:00 +33°C° 0 mm 3 mps 744 mmHg 28%
    16:00 +31°C° 0 mm 3 mps 744 mmHg 29%
    17:00 +27°C° 0 mm 2 mps 744 mmHg 41%
    18:00 +23°C° 0 mm 2 mps 744 mmHg 53%
    19:00 +19°C° 0 mm 1 mps 744 mmHg 65%
    20:00 +19°C° 0 mm 1 mps 744 mmHg 68%
    21:00 +18°C° 0 mm 1 mps 744 mmHg 71%
    22:00 +15°C° 0 mm 0 mps 744 mmHg 74%
    23:00 +15°C° 0 mm 0 mps 743 mmHg 74%

    Day after tomorrow, 27 January, Monday

    Time Temperature Precipitation Wind Pressure Humidity
    00:00 +14°C° 0 mm 0 mps 743 mmHg 74%
    01:00 +14°C° 0 mm 0 mps 742 mmHg 74%
    02:00 +14°C° 0 mm 0 mps 742 mmHg 75%
    03:00 +13°C° 0 mm 0 mps 742 mmHg 76%
    04:00 +13°C° 0 mm 0 mps 742 mmHg 76%
    05:00 +17°C° 0 mm 0 mps 742 mmHg 64%
    06:00 +20°C° 0 mm 0 mps 743 mmHg 52%
    07:00 +24°C° 0 mm 0 mps 743 mmHg 41%
    08:00 +28°C° 0 mm 1 mps 743 mmHg 37%
    09:00 +30°C° 0 mm 2 mps 743 mmHg 33%
    10:00 +33°C° 0 mm 3 mps 743 mmHg 29%
    11:00 +34°C° 0 mm 3 mps 743 mmHg 30%
    12:00 +34°C° 0 mm 3 mps 743 mmHg 30%
    13:00 +34°C° 0 mm 4 mps 742 mmHg 31%
    14:00 +33°C° 0 mm 4 mps 742 mmHg 34%
    15:00 +33°C° 0 mm 3 mps 742 mmHg 36%
    16:00 +31°C° 0 mm 3 mps 742 mmHg 39%
    17:00 +27°C° 0 mm 2 mps 742 mmHg 54%
    18:00 +23°C° 0 mm 2 mps 742 mmHg 68%
    19:00 +19°C° 0 mm 1 mps 742 mmHg 83%
    20:00 +18°C° 0 mm 1 mps 742 mmHg 84%
    21:00 +16°C° 0 mm 0 mps 742 mmHg 86%
    22:00 +15°C° 0 mm 0 mps 742 mmHg 87%
    23:00 +15°C° 0 mm 0 mps 742 mmHg 87%

    28 January, Tuesday

    Time Temperature Precipitation Wind Pressure Humidity
    00:00 +14°C° 0 mm 0 mps 742 mmHg 87%
    01:00 +14°C° 0 mm 0 mps 741 mmHg 87%
    02:00 +14°C° 0 mm 0 mps 741 mmHg 87%
    03:00 +13°C° 0 mm 0 mps 741 mmHg 88%
    04:00 +13°C° 0 mm 0 mps 741 mmHg 88%
    05:00 +16°C° 0 mm 0 mps 741 mmHg 79%
    06:00 +21°C° 0 mm 1 mps 742 mmHg 69%
    07:00 +24°C° 0 mm 1 mps 742 mmHg 59%
    08:00 +26°C° 0 mm 2 mps 742 mmHg 53%
    09:00 +28°C° 0 mm 3 mps 742 mmHg 46%
    10:00 +30°C° 0 mm 3 mps 743 mmHg 40%
    11:00 +32°C° 0 mm 4 mps 743 mmHg 36%
    12:00 +32°C° 0 mm 4 mps 743 mmHg 33%
    13:00 +32°C° 0 mm 4 mps 743 mmHg 30%
    14:00 +32°C° 0 mm 4 mps 743 mmHg 30%
    15:00 +30°C° 0 mm 4 mps 742 mmHg 31%
    16:00 +29°C° 0 mm 3 mps 742 mmHg 32%
    17:00 +25°C° 0 mm 3 mps 742 mmHg 47%
    18:00 +20°C° 0 mm 2 mps 742 mmHg 63%
    19:00 +16°C° 0 mm 1 mps 742 mmHg 78%
    20:00 +15°C° 0 mm 1 mps 742 mmHg 81%
    21:00 +14°C° 0 mm 1 mps 742 mmHg 84%
    22:00 +13°C° 0 mm 1 mps 742 mmHg 88%
    23:00 +12°C° 0 mm 0 mps 742 mmHg 86%

    29 January, Wednesday

    Time Temperature Precipitation Wind Pressure Humidity
    00:00 +11°C° 0 mm 0 mps 742 mmHg 85%
    01:00 +11°C° 0 mm 0 mps 741 mmHg 84%
    02:00 +11°C° 0 mm 0 mps 741 mmHg 84%
    03:00 +11°C° 0 mm 0 mps 741 mmHg 84%
    04:00 +11°C° 0 mm 0 mps 741 mmHg 84%
    05:00 +15°C° 0 mm 1 mps 742 mmHg 75%
    06:00 +18°C° 0 mm 1 mps 742 mmHg 66%
    07:00 +21°C° 0 mm 1 mps 743 mmHg 57%
    08:00 +24°C° 0 mm 2 mps 743 mmHg 49%
    09:00 +26°C° 0 mm 2 mps 743 mmHg 42%
    10:00 +29°C° 0 mm 3 mps 743 mmHg 34%
    11:00 +29°C° 0 mm 3 mps 743 mmHg 33%
    12:00 +30°C° 0 mm 3 mps 743 mmHg 32%
    13:00 +32°C° 0 mm 4 mps 743 mmHg 32%
    14:00 +30°C° 0 mm 4 mps 743 mmHg 36%
    15:00 +29°C° 0 mm 3 mps 743 mmHg 40%
    16:00 +28°C° 0 mm 3 mps 743 mmHg 44%
    17:00 +25°C° 0 mm 3 mps 743 mmHg 57%
    18:00 +20°C° 0 mm 2 mps 743 mmHg 71%
    19:00 +16°C° 0 mm 1 mps 743 mmHg 85%
    20:00 +16°C° 0 mm 1 mps 743 mmHg 87%
    21:00 +15°C° 0 mm 1 mps 743 mmHg 88%
    22:00 +13°C° 0 mm 0 mps 743 mmHg 89%
    23:00 +13°C° 0 mm 0 mps 742 mmHg 88%

    30 January, Thursday

    Time Temperature Precipitation Wind Pressure Humidity
    00:00 +12°C° 0 mm 0 mps 742 mmHg 88%
    01:00 +12°C° 0 mm 0 mps 741 mmHg 88%
    02:00 +12°C° 0 mm 0 mps 741 mmHg 88%
    03:00 +12°C° 0 mm 0 mps 741 mmHg 88%
    04:00 +11°C° 0 mm 0 mps 741 mmHg 88%
    05:00 +14°C° 0 mm 0 mps 742 mmHg 79%
    06:00 +17°C° 0 mm 0 mps 742 mmHg 69%
    07:00 +21°C° 0 mm 0 mps 742 mmHg 59%
    08:00 +25°C° 0 mm 1 mps 743 mmHg 52%
    09:00 +27°C° 0 mm 2 mps 743 mmHg 45%
    10:00 +30°C° 0 mm 3 mps 743 mmHg 38%
    11:00 +30°C° 0 mm 3 mps 743 mmHg 36%
    12:00 +32°C° 0 mm 4 mps 742 mmHg 35%
    13:00 +33°C° 0 mm 4 mps 742 mmHg 34%
    14:00 +32°C° 0 mm 4 mps 742 mmHg 35%
    15:00 +30°C° 0 mm 3 mps 742 mmHg 36%
    16:00 +29°C° 0 mm 3 mps 742 mmHg 37%
    17:00 +25°C° 0 mm 2 mps 742 mmHg 50%
    18:00 +20°C° 0 mm 2 mps 742 mmHg 63%
    19:00 +18°C° 0 mm 1 mps 742 mmHg 77%
    20:00 +16°C° 0 mm 1 mps 743 mmHg 79%
    21:00 +14°C° 0 mm 0 mps 743 mmHg 82%
    22:00 +13°C° 0 mm 0 mps 743 mmHg 84%
    23:00 +13°C° 0 mm 0 mps 743 mmHg 83%
    Show more